Temperature
25 23 23 23 24 24 24 24 23 24 24 23 23 22 22 21 21 20 20 20 20 20 21 21 21 20 20 20 20 20 20 20 19 19 19 19 19 19 19 19 19 18 18 18
23 23 24 24 24 24 24 24 23 23 24 24 22 22 22 21 21 21 21 21 21 21 21 21 21 20 20 20 20 20 20 20 19 19 19 19 19 19 19 19 19 19 18 18
24 25 25 25 25 25 24 23 24 24 23 23 23 23 22 22 22 22 22 21 21 21 21 21 21 21 21 20 20 20 20 20 20 19 19 19 19 19 19 19 19 19 19 18
24 24 25 26 25 25 24 24 24 24 23 21 23 21 22 21 21 21 21 22 22 22 22 22 22 21 21 21 21 20 20 20 20 20 19 19 19 19 19 19 19 19 19 18
25 25 25 26 26 25 25 24 24 23 22 21 21 21 21 20 21 21 21 22 22 22 22 22 22 22 22 21 21 21 20 20 20 20 19 19 19 19 19 19 19 19 19 19
25 25 26 26 26 25 24 23 22 20 20 21 21 21 21 20 21 21 21 22 22 22 22 22 22 22 22 21 21 21 20 20 20 20 20 19 19 19 19 19 19 19 19 19
25 25 25 26 25 25 23 21 21 21 20 20 20 20 21 21 21 21 22 22 22 22 22 22 22 22 22 21 21 21 21 20 20 20 20 19 19 19 19 19 19 19 19 19
24 24 25 26 25 24 23 22 21 22 21 20 20 21 21 22 22 22 22 22 22 22 22 22 22 22 22 22 21 21 21 21 20 20 20 20 19 19 19 19 19 19 19 19
22 23 25 25 25 24 23 21 20 19 20 20 20 20 21 21 21 21 21 21 22 22 22 22 22 22 22 22 22 21 21 21 21 20 20 20 19 19 19 19 19 19 19 19
22 23 24 24 24 23 22 19 18 19 20 20 21 21 20 21 21 20 20 21 21 22 22 22 22 22 22 22 22 21 21 21 21 20 20 20 20 19 19 19 19 19 19 18
22 22 23 23 24 23 22 20 17 16 18 19 20 20 21 20 20 19 20 21 21 22 22 22 22 22 22 22 22 21 21 21 21 20 20 20 20 19 19 19 19 18 18 18
20 19 21 22 22 22 22 20 18 20 19 17 18 20 21 19 19 19 20 20 21 22 22 22 22 22 22 21 21 21 21 21 20 20 20 20 19 19 19 19 18 18 18 18
20 19 20 21 22 22 22 20 18 17 16 16 18 20 20 19 19 20 20 20 21 21 21 21 21 21 21 21 21 21 21 21 20 20 19 19 19 19 19 19 18 18 18 18
20 18 20 21 21 21 21 21 19 18 18 17 18 19 19 19 19 19 20 20 21 21 21 21 21 21 21 21 21 21 21 20 20 20 19 19 19 19 19 18 18 18 18 18
19 19 20 20 21 21 22 21 20 20 19 19 19 18 19 18 18 19 19 20 20 20 20 21 21 21 21 21 21 21 21 20 20 19 19 19 19 18 18 18 18 18 17 17
17 19 20 21 21 21 21 21 20 20 19 19 19 18 18 18 19 18 18 19 19 20 20 20 21 21 21 21 21 20 20 20 19 19 19 19 18 18 18 18 18 17 17 17
16 17 18 19 20 21 20 20 20 20 19 19 19 18 17 17 17 18 18 18 19 20 20 20 20 20 20 20 20 20 19 19 19 18 18 18 18 18 18 18 17 17 17 17
15 15 15 17 19 20 19 20 20 19 18 18 18 17 17 17 18 19 19 19 19 19 20 20 20 20 20 20 20 19 19 19 18 18 18 18 18 18 17 17 17 17 17 16
14 15 14 15 17 18 19 19 19 19 18 18 17 17 17 18 18 18 18 19 19 19 19 19 20 20 19 19 19 19 18 18 18 18 18 17 17 17 17 17 17 17 16 16
13 13 14 15 18 18 19 19 19 19 18 18 17 17 17 17 16 17 19 19 19 19 19 19 19 19 19 18 18 18 18 17 17 17 17 17 17 16 16 16 16 16 16 16
16 14 15 15 17 17 18 18 19 19 18 18 18 18 17 17 17 19 19 18 19 18 18 18 18 18 18 18 17 17 17 17 17 16 16 16 16 16 16 16 16 15 15 15
15 15 14 14 16 17 17 17 18 17 18 18 18 18 18 18 18 18 18 18 18 18 18 18 18 17 17 17 17 17 17 16 16 16 16 16 16 15 15 15 15 15 15 15
13 14 13 14 15 15 16 17 18 19 18 18 19 19 18 18 18 18 18 18 17 17 17 17 17 16 16 16 16 16 16 15 15 15 15 15 15 15 15 15 15 14 14 14
13 12 12 13 14 15 16 17 18 18 18 18 18 18 18 18 18 17 17 17 17 17 16 16 16 16 16 15 15 15 14 14 14 14 14 14 14 14 14 14 14 14 14 13
13 13 12 13 14 15 17 17 18 18 18 18 18 18 18 18 17 17 17 16 16 16 16 16 16 15 15 15 14 14 14 14 14 14 14 13 13 13 13 13 13 13 13 13
12 12 13 13 15 14 16 17 17 17 17 18 18 17 17 17 17 16 16 16 15 15 15 15 15 15 14 14 14 14 13 13 13 13 13 13 13 13 13 13 13 13 12 12
Wind_Speed
3 4 2 6 6 5 4 2 2 3 2 3 3 3 4 7 7 8 8 8 9 10 7 7 7 8 8 7 7 7 7 6 5 3 3 2 2 2 2 3 4 5 5 5
4 2 6 4 3 3 3 2 2 3 1 2 1 4 3 7 9 9 10 10 10 8 6 7 8 8 9 9 8 8 7 7 6 5 3 3 2 2 2 1 2 4 5 5
6 6 3 4 3 2 2 5 4 2 2 3 2 5 3 2 4 6 7 8 8 11 11 10 9 9 9 9 10 9 8 7 7 5 3 2 2 1 0 1 1 3 4 4
4 4 3 3 3 5 4 5 5 3 2 1 2 3 6 3 4 6 7 8 9 10 10 10 11 11 11 11 9 8 8 7 6 6 5 5 4 4 4 2 2 2 3 3
5 3 4 5 6 7 5 1 3 3 3 2 2 1 7 3 4 8 8 8 9 10 11 12 12 12 11 9 8 7 7 6 6 6 7 6 4 4 2 2 2 2 2 2
5 3 4 5 2 4 4 7 7 6 5 1 2 2 6 4 6 6 6 7 8 9 10 10 10 8 8 8 7 7 7 6 6 6 6 6 6 4 3 3 3 3 2 2
4 4 3 2 3 3 6 6 4 5 4 4 2 2 7 7 6 7 6 6 7 7 8 8 9 9 9 9 9 8 8 8 7 7 7 7 6 6 6 5 4 3 3 3
2 5 4 2 5 5 4 8 7 5 5 4 1 4 7 6 4 3 3 3 4 6 7 9 9 10 9 10 9 8 9 8 7 7 7 6 6 5 4 5 4 4 4 4
6 5 4 2 1 7 6 4 6 7 3 0 4 5 7 3 4 3 2 2 4 5 6 7 7 8 8 9 9 9 9 7 7 7 6 6 6 6 5 5 4 4 4 4
8 4 4 3 5 5 5 8 6 6 5 2 4 4 4 6 5 3 2 1 2 3 4 5 6 6 7 7 7 7 7 8 8 7 7 7 6 6 6 4 5 5 5 4
5 5 3 3 2 3 4 5 6 5 5 6 3 6 5 7 5 4 4 2 3 4 5 5 5 5 5 5 6 7 7 6 6 7 6 6 5 6 5 5 6 5 5 5
4 5 1 4 3 1 4 5 7 5 3 4 4 7 4 4 4 3 3 2 2 3 4 4 4 4 5 6 5 6 6 6 5 5 5 6 5 4 4 5 5 5 5 5
6 6 3 5 5 3 3 3 5 7 5 5 5 6 2 1 2 1 1 1 1 2 3 3 4 4 4 5 5 5 5 5 4 4 4 4 4 4 4 5 4 4 5 5
6 5 6 8 7 4 2 2 4 6 4 5 7 7 5 3 2 2 2 1 1 2 3 3 2 2 3 4 4 5 4 4 4 4 3 3 4 4 4 4 4 4 4 4
5 5 4 4 3 4 3 4 5 5 8 8 8 7 8 5 4 3 1 1 3 2 2 2 2 2 2 2 2 2 2 3 3 3 3 3 3 3 3 3 3 3 3 4
3 5 3 1 1 2 1 2 5 5 4 4 3 5 5 2 1 1 1 2 3 2 2 2 2 2 2 3 3 3 2 1 2 2 2 2 2 2 2 3 3 2 3 3
2 6 5 3 2 2 3 5 5 4 3 6 6 7 2 1 2 3 3 3 3 3 3 3 3 3 3 3 3 3 3 2 1 1 2 2 2 2 3 3 2 3 3 3
6 5 5 3 3 5 8 3 4 4 2 4 4 4 5 4 3 2 2 4 3 2 2 1 1 1 1 1 1 2 2 2 2 2 3 2 2 3 2 2 3 3 3 3
4 7 5 5 4 3 4 2 4 4 2 1 4 3 4 4 4 3 1 1 2 2 2 1 1 2 1 1 1 2 1 1 1 2 2 2 2 3 3 3 4 3 3 4
6 5 6 5 5 7 7 3 1 5 2 3 4 5 5 6 3 3 2 1 1 1 1 1 1 2 2 1 2 3 1 0 1 2 3 3 3 3 3 4 3 2 3 4
4 5 4 4 4 6 5 3 3 4 7 4 5 6 7 6 6 4 2 1 1 1 2 2 3 2 1 1 2 2 1 1 2 2 2 2 2 2 3 3 2 2 3 4
4 3 3 4 3 6 3 2 6 6 2 4 4 5 5 4 2 2 3 2 2 2 3 3 3 2 2 2 2 1 1 2 2 1 2 2 2 2 2 2 2 3 3 3
4 5 5 6 6 5 3 4 4 3 3 2 3 4 5 4 2 2 2 2 2 2 2 2 2 2 2 2 1 0 3 2 2 1 2 3 3 2 2 2 3 2 2 3
1 2 3 1 4 4 4 2 1 1 2 2 3 4 5 5 4 4 3 2 2 1 1 2 3 2 1 2 1 1 2 2 2 2 2 3 3 3 3 2 2 2 3 3
3 2 2 2 5 3 4 2 1 0 2 3 2 2 4 5 4 4 3 3 2 1 1 1 2 1 1 1 2 2 2 1 1 2 3 3 3 3 3 3 2 3 3 3
4 5 5 6 6 4 5 4 1 1 1 2 3 2 1 3 4 3 3 2 2 2 1 1 1 1 1 1 2 3 3 1 1 2 3 3 3 3 3 3 4 3 3 4
Wind_Direction
62 77 195 219 199 190 174 159 241 260 224 166 223 246 216 190 192 197 199 203 203 207 207 193 188 183 176 179 185 187 184 180 165 160 168 177 214 227 232 233 237 234 229 218
42 274 234 204 172 149 149 152 249 298 32 142 271 284 238 198 206 205 204 207 207 200 195 195 191 187 183 184 189 191 191 184 182 182 173 177 178 200 218 242 249 237 225 220
190 235 200 162 158 143 194 190 212 210 23 45 49 327 300 246 217 220 211 205 205 201 198 196 195 196 189 189 192 195 193 191 189 179 152 135 102 61 292 242 243 241 227 227
224 247 181 175 203 166 248 223 194 173 109 310 91 284 295 281 250 232 224 207 206 207 197 194 195 194 197 198 192 190 189 189 188 175 171 175 185 203 218 219 232 249 231 224
237 205 178 204 218 176 212 122 123 130 137 58 23 144 293 328 274 255 238 223 211 203 195 196 199 197 198 193 188 186 183 189 186 181 182 184 199 210 215 213 227 245 249 240
243 238 206 209 194 153 129 70 58 50 71 22 265 172 285 255 240 264 243 225 215 198 193 194 193 186 188 184 183 179 182 194 188 183 184 190 199 201 200 216 225 237 242 242
320 309 273 163 100 61 94 92 42 10 14 256 268 175 255 264 246 246 247 226 210 187 182 182 177 181 185 183 185 182 185 198 194 191 198 201 204 202 208 217 221 226 236 242
192 289 278 208 175 170 158 140 155 191 217 270 330 229 259 284 295 285 254 196 171 174 182 185 184 184 187 186 185 186 192 203 200 199 206 206 204 206 218 220 219 220 228 237
176 243 296 314 140 134 133 141 153 132 136 286 286 292 305 332 348 349 2 103 157 174 183 183 178 177 182 185 188 189 191 202 209 209 206 211 212 213 218 220 221 228 233 239
157 204 289 306 67 38 118 138 100 117 145 229 288 277 255 279 285 305 300 200 182 155 160 169 174 179 181 187 188 186 186 198 210 213 212 220 217 221 221 217 228 232 232 233
137 155 301 25 110 177 97 89 101 108 143 156 228 265 230 226 236 243 257 240 183 167 168 170 177 177 171 173 180 189 194 199 201 209 213 220 219 219 218 221 231 233 234 228
130 123 196 283 290 208 141 148 143 147 194 166 178 259 278 224 228 222 235 228 165 160 155 155 157 152 156 165 172 186 192 197 204 202 202 212 215 210 216 229 235 230 230 230
135 115 90 345 337 7 85 112 125 121 119 156 175 252 307 12 15 320 258 254 112 123 124 126 134 152 170 177 180 184 188 196 199 192 199 209 214 213 224 237 242 237 235 235
124 115 161 193 216 203 176 158 146 128 151 199 218 236 281 298 293 294 279 258 92 110 119 119 143 157 170 179 180 181 186 187 181 177 187 207 222 225 232 240 244 242 241 240
113 144 178 208 214 173 182 189 179 181 186 193 223 216 241 241 226 232 218 139 91 100 119 147 168 173 164 163 168 164 175 174 169 174 195 224 239 240 237 239 246 244 241 244
81 145 148 233 230 179 189 210 191 202 188 199 203 249 256 252 126 97 134 138 138 167 182 187 168 172 178 182 184 173 185 181 153 173 212 234 235 237 242 247 249 243 240 238
110 133 136 212 244 92 245 234 200 188 187 174 204 230 209 133 168 186 188 178 193 204 202 201 194 196 206 208 193 188 191 168 169 199 226 231 226 241 249 254 255 248 245 236
139 126 133 143 115 210 238 246 167 154 194 190 188 190 168 171 186 175 175 185 196 198 203 234 231 216 219 197 178 170 166 158 171 226 245 247 230 239 248 246 251 261 256 243
140 134 122 130 169 250 286 235 166 161 240 215 168 162 138 118 75 17 333 184 188 185 192 212 213 201 181 155 142 135 138 143 161 243 255 257 246 246 251 246 249 251 252 250
65 90 113 127 156 215 237 269 213 118 248 241 176 175 158 121 121 247 247 188 128 89 96 92 72 62 73 40 89 106 106 109 247 257 261 260 251 247 257 257 255 253 253 255
45 51 101 145 191 245 254 286 109 161 232 215 184 183 168 175 194 203 183 161 110 76 74 86 88 79 48 65 100 100 74 275 271 278 284 286 270 258 261 264 262 263 267 271
165 144 159 140 178 246 292 117 173 215 210 160 169 178 170 168 159 141 137 128 105 76 59 74 83 58 24 42 93 79 303 288 299 291 289 296 297 288 285 269 272 268 262 273
187 188 183 187 214 252 271 241 247 180 161 175 170 170 156 151 154 140 140 135 130 115 102 91 98 63 27 28 78 47 304 320 329 333 318 317 323 319 306 286 285 292 283 273
256 132 132 258 279 289 297 294 320 147 156 163 160 156 152 160 164 157 157 154 145 130 129 119 108 86 18 351 360 287 301 330 2 342 323 323 324 323 324 311 288 277 277 280
221 147 130 262 277 320 329 315 295 81 114 119 114 148 171 163 168 171 167 163 159 153 141 134 138 149 280 335 342 319 312 338 348 326 318 319 315 309 316 316 299 280 271 264
209 179 175 219 228 202 246 272 279 143 145 147 126 112 144 169 175 162 162 171 160 158 152 160 174 213 284 328 329 316 309 316 339 319 311 303 299 303 302 300 310 304 274 295
Height
1504 1510 1515 1512 1511 1512 1515 1521 1524 1519 1512 1515 1518 1519 1517 1518 1519 1520 1522 1523 1525 1526 1529 1532 1534 1537 1539 1542 1544 1546 1548 1550 1552 1554 1555 1557 1558 1559 1560 1561 1562 1563 1563 1564
1510 1513 1506 1504 1507 1510 1515 1521 1523 1518 1512 1515 1519 1519 1515 1515 1516 1516 1518 1520 1522 1525 1527 1530 1532 1535 1537 1539 1542 1544 1547 1549 1551 1552 1554 1556 1557 1558 1559 1560 1561 1561 1562 1563
1510 1507 1502 1504 1508 1512 1515 1519 1519 1520 1517 1516 1520 1523 1517 1514 1515 1516 1517 1518 1520 1522 1524 1527 1530 1532 1535 1537 1539 1542 1545 1547 1549 1551 1553 1554 1556 1557 1558 1558 1559 1560 1561 1562
1506 1502 1502 1505 1507 1509 1518 1509 1512 1516 1526 1532 1527 1541 1523 1516 1514 1513 1513 1515 1516 1518 1521 1523 1526 1529 1532 1534 1538 1541 1543 1545 1547 1549 1551 1552 1553 1554 1556 1557 1558 1559 1559 1560
1505 1500 1502 1505 1503 1504 1508 1505 1510 1516 1525 1534 1532 1540 1531 1519 1517 1511 1509 1510 1512 1514 1517 1519 1522 1525 1529 1533 1536 1539 1541 1543 1546 1547 1549 1550 1552 1553 1554 1555 1556 1557 1558 1558
1500 1497 1497 1498 1497 1500 1503 1511 1518 1526 1534 1546 1538 1541 1537 1523 1515 1508 1505 1506 1508 1510 1513 1516 1519 1523 1527 1530 1533 1536 1538 1541 1543 1545 1547 1548 1549 1551 1552 1553 1553 1554 1555 1556
1504 1499 1495 1495 1500 1502 1507 1524 1544 1547 1555 1551 1536 1538 1532 1511 1506 1505 1503 1503 1504 1507 1510 1513 1516 1520 1523 1527 1530 1533 1535 1538 1540 1542 1544 1546 1547 1548 1549 1550 1551 1552 1552 1553
1515 1515 1497 1494 1497 1505 1510 1519 1543 1553 1557 1550 1538 1538 1522 1507 1504 1502 1502 1502 1503 1505 1507 1510 1514 1517 1521 1524 1528 1530 1533 1535 1537 1539 1541 1543 1544 1546 1547 1548 1548 1549 1549 1550
1515 1513 1495 1492 1492 1498 1510 1519 1520 1539 1545 1551 1543 1531 1516 1505 1504 1502 1502 1501 1502 1503 1506 1509 1512 1515 1519 1522 1525 1527 1530 1532 1534 1536 1538 1540 1541 1543 1544 1545 1545 1546 1546 1547
1501 1510 1499 1494 1494 1498 1502 1512 1528 1539 1552 1555 1544 1536 1529 1513 1508 1504 1503 1502 1501 1503 1505 1508 1511 1514 1517 1520 1523 1525 1527 1529 1531 1534 1535 1537 1538 1540 1540 1541 1541 1542 1543 1543
1496 1508 1505 1500 1502 1506 1508 1515 1526 1538 1540 1552 1553 1539 1511 1509 1506 1504 1502 1501 1501 1502 1504 1506 1509 1512 1515 1518 1521 1523 1525 1527 1529 1531 1532 1534 1535 1536 1537 1537 1538 1538 1539 1539
1497 1508 1516 1507 1499 1498 1501 1509 1520 1531 1540 1544 1546 1535 1504 1503 1502 1502 1502 1501 1501 1502 1504 1506 1509 1512 1515 1517 1519 1521 1523 1524 1526 1528 1529 1531 1532 1533 1533 1534 1534 1534 1535 1535
1495 1508 1523 1520 1514 1504 1504 1508 1513 1523 1536 1544 1543 1529 1503 1502 1501 1502 1502 1502 1501 1503 1504 1506 1509 1510 1513 1515 1517 1519 1521 1522 1524 1525 1527 1528 1529 1529 1529 1530 1530 1531 1531 1531
1488 1505 1514 1522 1517 1507 1507 1508 1511 1518 1531 1535 1529 1519 1507 1504 1503 1502 1502 1502 1502 1503 1505 1506 1508 1510 1512 1514 1516 1517 1519 1521 1522 1523 1524 1525 1525 1526 1526 1526 1527 1527 1527 1527
1488 1503 1503 1503 1501 1501 1502 1504 1507 1510 1514 1520 1516 1514 1507 1504 1503 1502 1502 1502 1503 1504 1505 1507 1508 1509 1511 1513 1515 1516 1518 1519 1520 1521 1522 1522 1523 1523 1523 1523 1523 1523 1523 1523
1491 1500 1502 1503 1500 1500 1503 1502 1503 1505 1507 1509 1510 1510 1501 1501 1502 1502 1502 1502 1503 1504 1505 1506 1507 1509 1510 1511 1513 1514 1516 1517 1518 1519 1520 1521 1520 1520 1520 1520 1519 1519 1519 1519
1496 1500 1508 1512 1504 1503 1511 1502 1501 1502 1501 1503 1508 1504 1500 1501 1501 1501 1501 1502 1502 1503 1504 1505 1506 1508 1509 1510 1511 1513 1514 1516 1517 1518 1518 1518 1518 1518 1517 1517 1516 1515 1515 1515
1495 1502 1510 1515 1511 1521 1507 1494 1494 1498 1498 1497 1497 1497 1498 1499 1500 1500 1501 1501 1501 1502 1503 1505 1506 1507 1508 1510 1511 1512 1513 1513 1514 1515 1515 1515 1515 1515 1515 1514 1513 1512 1512 1511
1490 1499 1511 1518 1519 1514 1502 1494 1494 1498 1500 1496 1496 1496 1497 1498 1500 1501 1501 1501 1502 1503 1503 1504 1505 1506 1507 1508 1509 1510 1510 1511 1512 1512 1512 1512 1512 1512 1511 1510 1510 1509 1508 1508
1492 1496 1507 1516 1517 1519 1503 1491 1489 1494 1503 1495 1494 1495 1496 1497 1504 1503 1501 1502 1503 1503 1504 1504 1505 1505 1506 1507 1507 1508 1508 1509 1509 1510 1510 1510 1510 1509 1508 1507 1507 1506 1505 1504
1499 1504 1508 1513 1513 1507 1494 1489 1490 1504 1501 1492 1492 1493 1495 1496 1497 1498 1500 1501 1502 1503 1503 1504 1504 1505 1505 1506 1506 1506 1506 1506 1507 1508 1508 1507 1507 1505 1505 1504 1503 1502 1501 1500
1502 1506 1510 1513 1512 1508 1490 1489 1493 1492 1488 1489 1490 1492 1493 1494 1496 1497 1498 1499 1501 1502 1502 1503 1503 1503 1504 1504 1504 1504 1503 1504 1505 1505 1505 1504 1503 1502 1501 1500 1499 1499 1497 1496
1499 1499 1501 1502 1502 1493 1489 1488 1487 1487 1487 1488 1489 1490 1492 1493 1495 1496 1498 1499 1500 1501 1501 1502 1502 1502 1502 1502 1502 1502 1502 1502 1502 1501 1501 1500 1499 1498 1498 1496 1495 1495 1493 1492
1495 1494 1497 1498 1493 1489 1487 1486 1486 1486 1486 1487 1488 1490 1491 1492 1493 1495 1497 1498 1499 1500 1500 1501 1501 1501 1501 1501 1500 1500 1499 1499 1498 1498 1497 1497 1496 1495 1494 1493 1492 1491 1490 1489
1493 1493 1495 1495 1491 1488 1486 1486 1486 1486 1486 1487 1488 1489 1490 1491 1492 1494 1495 1495 1497 1498 1499 1499 1499 1498 1499 1499 1498 1497 1497 1496 1494 1494 1494 1493 1492 1491 1490 1490 1489 1488 1487 1486
1489 1490 1493 1492 1487 1487 1486 1485 1486 1486 1486 1486 1487 1488 1489 1490 1491 1492 1493 1494 1495 1496 1497 1497 1496 1496 1496 1495 1495 1494 1494 1493 1492 1491 1491 1490 1489 1488 1487 1486 1485 1484 1483 1481